Location: Daytona Beach
(29.2106°N, 81.0231°W)
Time: 06:49:23
(UTC-04:00)

XW-2C - Visible Passes

Search period start: 20 September 2021 00:00
Search period end: 30 September 2021 00:00
Orbit: 505 x 524 km, 97.5° (Epoch: 19 September)

Date Brightness Start Highest point End Pass type
(mag) Time Alt. Az. Time Alt. Az. Time Alt. Az.
20 Sep ? 06:22:58 10° ENE 06:24:54 14° E 06:26:52 10° SE visible
21 Sep ? 19:50:29 10° WSW 19:51:38 11° W 19:52:45 10° WNW visible
25 Sep ? 06:40:41 10° NE 06:43:46 24° E 06:46:50 10° SSE visible
26 Sep ? 06:26:25 10° ENE 06:28:39 15° E 06:30:54 10° SE visible
28 Sep ? 19:37:52 10° SW 19:40:14 16° W 19:42:38 10° WNW visible
